Location: Unspecified
(0.0000°N, 0.0000°E)
Time: 15:05:05
(UTC+00:00)

Vanguard 1 Rocket - All Passes

Search period start: 26 November 2014 00:00
Search period end: 06 December 2014 00:00
Orbit: 655 x 4225 km, 34.3° (Epoch: 24 November)

Date Brightness Start Highest point End Pass type
(mag) Time Alt. Az. Time Alt. Az. Time Alt. Az.
26 Nov - 00:16:48 10° NW 00:43:21 88° NE 01:00:01 10° SE visible
26 Nov - 02:55:06 10° W 03:13:21 35° SW 03:24:16 10° SSE visible
26 Nov - 10:41:31 10° SSE 10:43:28 12° SE 10:45:34 10° ESE daylight
26 Nov - 13:03:02 10° WSW 13:08:14 63° NNW 13:17:16 10° NE daylight
26 Nov - 15:30:50 10° WNW 15:37:06 20° NNW 15:46:27 10° NNE daylight
26 Nov - 18:03:14 10° NNW 18:12:32 16° N 18:24:35 10° NE visible
26 Nov - 20:32:36 10° NNW 20:52:06 31° NNE 21:12:56 10° E visible
26 Nov - 23:02:15 10° NW 23:28:34 67° NE 23:48:02 10° ESE visible
27 Nov - 01:36:49 10° WNW 02:00:34 55° SW 02:14:32 10° SE visible
27 Nov - 04:23:07 10° WSW 04:29:59 14° SW 04:35:20 10° S visible
27 Nov - 11:53:07 10° SW 11:57:40 60° SE 12:04:33 10° ENE daylight
27 Nov - 14:18:47 10° WNW 14:24:19 25° NNW 14:33:07 10° NNE daylight
27 Nov - 16:50:22 10° NNW 16:56:41 14° N 17:04:54 10° NNE daylight
27 Nov - 19:20:22 10° NNW 19:35:09 23° NNE 19:53:16 10° ENE visible
27 Nov - 21:48:46 10° NW 22:12:56 50° NE 22:34:31 10° ESE visible
28 Nov - 00:20:26 10° WNW 00:46:54 78° SW 01:03:54 10° SE visible
28 Nov - 03:00:48 10° W 03:17:10 27° SW 03:27:37 10° SSE visible
28 Nov - 10:44:00 10° SSW 10:47:27 22° SE 10:51:30 10° E daylight
28 Nov - 13:07:36 10° W 13:12:33 39° NNW 13:20:39 10° NE daylight
28 Nov - 15:37:16 10° NW 15:42:17 15° N 15:48:56 10° NNE daylight
28 Nov - 18:08:35 10° NNW 18:18:23 16° NNE 18:30:59 10° NE visible
28 Nov - 20:36:12 10° NNW 20:56:47 37° NNE 21:18:48 10° E visible
28 Nov - 23:05:39 10° NW 23:32:16 79° NE 23:52:13 10° ESE visible
29 Nov - 01:41:25 10° WNW 02:04:06 45° SW 02:18:05 10° SSE visible
29 Nov - 04:33:01 10° SW 04:34:37 10° SSW 04:36:07 10° SSW visible
29 Nov - 11:57:09 10° WSW 12:01:42 80° NW 12:08:33 10° NE daylight
29 Nov - 14:24:31 10° WNW 14:29:10 17° NNW 14:35:41 10° NNE daylight
29 Nov - 16:57:01 10° NNW 17:02:24 13° N 17:09:00 10° NNE daylight
29 Nov - 19:24:21 10° NNW 19:40:23 26° NNE 20:00:06 10° ENE visible
29 Nov - 21:52:08 10° NW 22:16:52 60° NE 22:39:10 10° ESE visible
30 Nov - 00:24:22 10° WNW 00:50:22 66° SW 01:07:37 10° SE visible
30 Nov - 03:07:13 10° W 03:21:16 22° SW 03:30:51 10° S visible
30 Nov - 10:47:20 10° SSW 10:51:26 38° SE 10:56:24 10° ENE daylight
30 Nov - 13:12:36 10° W 13:17:04 25° NNW 13:23:42 10° NNE daylight
30 Nov - 15:44:57 10° NNW 15:47:39 11° N 15:50:44 10° NNE daylight
30 Nov - 18:13:11 10° NNW 18:24:01 18° NNE 18:38:07 10° ENE visible
30 Nov - 20:39:39 10° NNW 21:01:04 44° NE 21:24:11 10° E visible
30 Nov - 23:09:12 10° NW 23:35:48 88° SW 23:56:10 10° SE visible
01 Dec - 01:46:33 10° W 02:07:48 37° SW 02:21:33 10° SSE visible
01 Dec - 09:38:28 10° S 09:40:58 14° SSE 09:43:26 10° ESE daylight
01 Dec - 12:01:31 10° WSW 12:05:54 45° NNW 12:12:12 10° NE daylight
01 Dec - 14:31:25 10° NNW 14:34:10 12° N 14:37:25 10° N daylight
01 Dec - 17:02:54 10° N 17:08:08 12° NNE 17:14:25 10° NNE daylight
01 Dec - 19:28:02 10° NNW 19:45:10 31° NNE 20:06:30 10° E visible
01 Dec - 21:55:33 10° NW 22:20:33 71° NE 22:43:29 10° ESE visible
02 Dec - 00:28:38 10° WNW 00:53:52 55° SW 01:11:12 10° SE visible
02 Dec - 03:14:24 10° WSW 03:25:44 17° SSW 03:34:01 10° S visible
02 Dec - 10:51:05 10° SW 10:55:28 72° SE 11:00:44 10° ENE daylight
02 Dec - 13:18:18 10° WNW 13:21:45 16° NNW 13:26:14 10° NNE daylight
02 Dec - 18:17:12 10° NNW 18:29:20 21° NNE 18:45:26 10° ENE visible
02 Dec - 20:43:04 10° NW 21:05:01 52° NE 21:29:06 10° ESE visible
02 Dec - 23:12:59 10° WNW 23:39:15 76° SW 23:59:55 10° SE visible
03 Dec - 01:52:17 10° W 02:11:46 30° SW 02:24:58 10° SSE visible
03 Dec - 09:41:14 10° SSW 09:45:09 26° SE 09:48:56 10° E daylight
03 Dec - 12:06:20 10° W 12:10:14 26° NNW 12:15:27 10° NNE daylight
03 Dec - 17:07:33 10° N 17:13:45 13° NNE 17:21:24 10° NE daylight
03 Dec - 19:31:32 10° NNW 19:49:31 37° NE 20:12:20 10° E visible
03 Dec - 21:59:05 10° NW 22:24:04 83° NE 22:47:30 10° SE visible
04 Dec - 00:33:19 10° WNW 00:57:29 46° SW 01:14:42 10° SSE visible
04 Dec - 03:22:16 10° SW 03:30:35 14° SSW 03:37:07 10° S visible
04 Dec - 08:32:28 10° S 08:34:12 12° SSE 08:35:48 10° SE daylight
04 Dec - 10:55:13 10° WSW 10:59:33 59° NW 11:04:40 10° NE daylight
04 Dec - 18:20:52 10° NNW 18:34:13 25° NNE 18:52:26 10° ENE visible
04 Dec - 20:46:31 10° NW 21:08:41 62° NE 21:33:36 10° ESE visible
04 Dec - 23:17:02 10° WNW 23:42:43 64° SW 00:03:31 10° SE visible
05 Dec - 01:58:40 10° W 02:16:04 24° SSW 02:28:23 10° SSE visible
05 Dec - 09:44:41 10° SW 09:49:17 48° SE 09:53:38 10° ENE daylight
05 Dec - 12:11:52 10° WNW 12:14:43 15° NNW 12:18:06 10° N daylight
05 Dec - 17:11:22 10° N 17:19:07 15° NNE 17:29:08 10° NE daylight
05 Dec - 19:34:59 10° NNW 19:53:31 45° NE 20:17:37 10° ESE visible
05 Dec - 22:02:47 10° NW 22:27:30 85° SW 22:51:18 10° SE visible
